Content
SEND FEEDBACK

Daily
Averages
Monthly
Summary
United States of America

HAZELWOOD, MISSOURI


Home > North America > United States > Missouri
Elevation: 570 feet     Latitude: 38 45N     Longitude: 090 22W

WEATHER
 
SELECT A DAY
Number of Records: 196,291;   Date Range: 1/1/95 - 7/22/14
 
SHARE

PRINT THIS DATA

[ ← Previous Day ]
WEATHER ALMANAC - APRIL 6, 2013
[ Next Day → ]
[ °C ]   °F
Weather ElementAverageHighLow
Temperature65.5 °F73.9 °F (1:54 pm)54 °F (6:54 am)
Dewpoint35.2 °F39.9 °F (9:54 pm)30.9 °F (11:54 am)
Humidity33.7 %47 % (4:54 am)22 % (3:54 pm)
Barometer29.85 in30.01 in (1:54 am)29.70 in (5:54 pm)
Wind Speed10 mph18.4 mph (11:54 am)
Wind Gust34.5 mph (12:54 pm)
Weather ElementAverage
Visibility10 mi
Wind DirectionS (183.5 °)

Weather ElementTotal
Precipitation---
Heating Degree Days1.1 (Base 65)
Growing Degree Days14 (Base 50)
Averaged from 23 records on April 6, 2013
WEATHER CONDITIONS BREAKOUT
WIND DIRECTION BREAKOUT
WEATHER BY HOUR - APRIL 6, 2013
[ °C ]   °F
Local TimeTemperatureDewpointHumidityBarometerVisibilityWind DirectionWind SpeedGust SpeedPrecipitationEventsConditions
1:54 AM55.9 °F33.1 °F42 %30.01 in10.0 miSE (130°)5.8 mphClear
2:54 AM55.9 °F33.1 °F42 %29.99 in10.0 miSSE (160°)6.9 mphClear
3:54 AM55.0 °F34.0 °F45 %29.98 in10.0 miSSE (150°)5.8 mphClear
4:54 AM55.0 °F35.1 °F47 %29.97 in10.0 miSSE (150°)3.5 mphClear
5:54 AM55.0 °F35.1 °F47 %29.96 in10.0 miSouth (170°)6.9 mphClear
6:54 AM54.0 °F34.0 °F47 %29.97 in10.0 miSSE (160°)3.5 mphMostly Cloudy
7:54 AM59.0 °F34.0 °F39 %29.96 in10.0 miSouth (170°)9.2 mphMostly Cloudy
8:54 AM59.0 °F34.0 °F39 %29.97 in10.0 miSouth (180°)8.1 mphMostly Cloudy
9:54 AM63.0 °F35.1 °F35 %29.93 in10.0 miSouth (190°)10.4 mph20.7 mphMostly Cloudy
10:54 AM66.9 °F33.1 °F28 %29.89 in10.0 miSouth (170°)15.0 mph24.2 mphMostly Cloudy
11:54 AM71.1 °F30.9 °F23 %29.87 in10.0 miSSW (200°)18.4 mph32.2 mphClear
12:54 PM72.0 °F33.1 °F24 %29.84 in10.0 miSouth (190°)15.0 mph34.5 mphMostly Cloudy
1:54 PM73.9 °F34.0 °F23 %29.78 in10.0 miSSW (200°)13.8 mph29.9 mphMostly Cloudy
2:54 PM73.9 °F34.0 °F23 %29.75 in10.0 miSSE (160°)16.1 mph27.6 mphClear
3:54 PM73.9 °F33.1 °F22 %29.73 in10.0 miSouth (190°)15.0 mph28.8 mphMostly Cloudy
4:54 PM73.9 °F34.0 °F23 %29.71 in10.0 miSouth (190°)8.1 mph20.7 mphScattered Clouds
5:54 PM73.9 °F36.0 °F25 %29.70 in10.0 miSSW (200°)12.7 mph25.3 mphScattered Clouds
6:54 PM73.0 °F37.9 °F28 %29.71 in10.0 miSW (220°)10.4 mph23.0 mphMostly Cloudy
7:54 PM71.1 °F37.9 °F30 %29.73 in10.0 miSSW (210°)9.2 mph19.6 mphClear
8:54 PM71.1 °F39.0 °F31 %29.75 in10.0 miSSW (210°)11.5 mph19.6 mphOvercast
9:54 PM68.0 °F39.9 °F36 %29.77 in10.0 miSW (220°)6.9 mphPartly Cloudy
10:54 PM66.9 °F39.9 °F37 %29.77 in10.0 miSSW (200°)9.2 mphClear
11:54 PM64.9 °F39.9 °F40 %29.78 in10.0 miSSW (200°)8.1 mphOvercast
Hourly data recorded from KSUS, located miles away from Hazelwood, Missouri







STORIES FROM OUR PARTNERS